Location: Vihti�l�
(61.3833°N, 23.0667°E)
Time: 04:36:37
(UTC+00:00)

IDEFIX/ARIANE 42P - Pass Details

Date: 29 November 2020
Orbit: 786 x 802 km, 98.4° (Epoch: 19 January)

Event Time Altitude Azimuth Distance (km) Brightness Sun altitude
Rises 04:38:12 0° 22° (NNE) 3,296 5.9 -16.2°
Reaches altitude 10° 04:41:18 10° 3° (N) 2,363 4.9 -15.9°
Enters shadow 04:44:29 17° 325° (NW) 1,929 4.1 -15.5°
